Soldotna, AK

6:37 PM AKST on January 23, 2017 (GMT -0900)
Soldotna

Weather History for PASX - May, 2013

Change the Weather History Date:

Friday, May 10, 2013

  Actual Average Record
Temperature  
Mean Temperature 43 °F -  
Max Temperature 60 °F 50 °F 64 °F (1970)
Min Temperature 26 °F 34 °F 14 °F (1964)
Degree Days  
Heating Degree Days 22    
Moisture  
Dew Point 29 °F    
Average Humidity 55    
Maximum Humidity 86    
Minimum Humidity 33    
Precipitation  
Precipitation 0.00 in - - ()
Sea Level Pressure  
Sea Level Pressure 30.07 in    
Wind  
Wind Speed 3 mph (NE)    
Max Wind Speed 9 mph    
Max Gust Speed -    
Visibility 10 miles    
Events      
Averages and records for this station are not official NWS values.
T = Trace of Precipitation, MM = Missing Value Source: NWS Daily Summary

Daily Weather History Graph

Daily Weather History Graph

Search for Another Location

Airport or City:

Trip Planner

Search our weather history database for the weather conditions in past years. The results will help you decide how hot, cold, wet, or windy it might be!

Date:

Astronomy

May. 10, 2013 Rise Set
Actual Time 5:34 AM AKDT 10:28 PM AKDT
Civil Twilight 4:32 AM AKDT 11:31 PM AKDT
Nautical Twilight 2:32 AM AKDT 1:28 AM AKDT
Astronomical Twilight Sun does not rise Sun does not rise
Moon 6:03 AM AKDT (5/10) 11:34 PM AKDT (5/10)
Length of Visible Light 18h 58m
Length of Day
16h 54m
New Moon, 1% of the Moon is Illuminated
May 10
New Moon
May 17
First Quarter
May 24
Full
May 31
Last Quarter
Jun 8
New

Hourly Weather History & Observations

Time (AKDT) Temp. Windchill Dew Point Humidity Pressure Visibility Wind Dir Wind Speed Gust Speed Precip Events Conditions
12:16 AM 35.6 °F - 26.6 °F 70% 30.23 in 10.0 mi Calm Calm - N/A   Partly Cloudy
12:36 AM 35.6 °F - 26.6 °F 70% 30.23 in 10.0 mi Calm Calm - N/A   Clear
12:56 AM 33.8 °F - 26.6 °F 75% 30.23 in 10.0 mi Calm Calm - N/A   Clear
1:16 AM 32.0 °F - 26.6 °F 80% 30.23 in 10.0 mi Calm Calm - N/A   Clear
1:36 AM 32.0 °F - 24.8 °F 75% 30.22 in 10.0 mi Calm Calm - N/A   Clear
1:56 AM 30.2 °F - 24.8 °F 80% 30.22 in 10.0 mi Calm Calm - N/A   Clear
2:16 AM 30.2 °F - 24.8 °F 80% 30.21 in 10.0 mi Calm Calm - N/A   Clear
2:36 AM 30.2 °F - 24.8 °F 80% 30.21 in 10.0 mi Calm Calm - N/A   Clear
2:56 AM 30.2 °F - 24.8 °F 80% 30.20 in 10.0 mi Calm Calm - N/A   Clear
3:16 AM 28.4 °F - 24.8 °F 86% 30.20 in 10.0 mi Calm Calm - N/A   Clear
3:36 AM 28.4 °F - 24.8 °F 86% 30.19 in 10.0 mi Calm Calm - N/A   Clear
4:16 AM 28.4 °F - 24.8 °F 86% 30.18 in 10.0 mi Calm Calm - N/A   Clear
4:36 AM 28.4 °F - 23.0 °F 80% 30.18 in 10.0 mi Calm Calm - N/A   Clear
4:56 AM 28.4 °F - 24.8 °F 86% 30.18 in 10.0 mi Calm Calm - N/A   Clear
5:16 AM 28.4 °F - 21.2 °F 74% 30.17 in 10.0 mi Calm Calm - N/A   Clear
5:36 AM 28.4 °F - 23.0 °F 80% 30.17 in 10.0 mi Calm Calm - N/A   Clear
5:56 AM 26.6 °F - 23.0 °F 86% 30.16 in 10.0 mi Calm Calm - N/A   Clear
6:16 AM 28.4 °F - 24.8 °F 86% 30.16 in 10.0 mi Calm Calm - N/A   Clear
6:36 AM 28.4 °F - 24.8 °F 86% 30.15 in 10.0 mi Calm Calm - N/A   Clear
6:56 AM 28.4 °F 24.6 °F 24.8 °F 86% 30.15 in 10.0 mi East 3.5 mph - N/A   Clear
7:16 AM 30.2 °F 26.7 °F 24.8 °F 80% 30.14 in 10.0 mi ENE 3.5 mph - N/A   Clear
7:36 AM 30.2 °F - 26.6 °F 86% 30.14 in 10.0 mi Calm Calm - N/A   Clear
7:56 AM 33.8 °F - 26.6 °F 75% 30.14 in 10.0 mi Calm Calm - N/A   Scattered Clouds
8:16 AM 33.8 °F - 28.4 °F 81% 30.14 in 10.0 mi Calm Calm - N/A   Partly Cloudy
8:36 AM 37.4 °F - 28.4 °F 70% 30.14 in 10.0 mi Calm Calm - N/A   Clear
8:56 AM 42.8 °F 41.1 °F 30.2 °F 61% 30.13 in 10.0 mi ESE 3.5 mph - N/A   Clear
9:16 AM 42.8 °F 41.1 °F 30.2 °F 61% 30.12 in 10.0 mi ESE 3.5 mph - N/A   Clear
9:36 AM 46.4 °F 43.5 °F 30.2 °F 53% 30.12 in 10.0 mi NNE 5.8 mph - N/A   Clear
9:56 AM 46.4 °F 44.3 °F 30.2 °F 53% 30.12 in 10.0 mi North 4.6 mph - N/A   Clear
10:16 AM 48.2 °F - 28.4 °F 46% 30.11 in 10.0 mi NE 8.1 mph - N/A   Clear
10:36 AM 48.2 °F - 28.4 °F 46% 30.11 in 10.0 mi NE 6.9 mph - N/A   Clear
10:56 AM 50.0 °F - 30.2 °F 47% 30.10 in 10.0 mi NNE 5.8 mph - N/A   Scattered Clouds
11:16 AM 50.0 °F - 30.2 °F 47% 30.10 in 10.0 mi NNE 6.9 mph - N/A   Partly Cloudy
11:36 AM 51.8 °F - 30.2 °F 44% 30.10 in 10.0 mi NNE 5.8 mph - N/A   Clear
11:56 AM 51.8 °F - 30.2 °F 44% 30.09 in 10.0 mi ENE 9.2 mph - N/A   Clear
12:16 PM 51.8 °F - 30.2 °F 44% 30.08 in 10.0 mi NE 6.9 mph - N/A   Mostly Cloudy
12:36 PM 53.6 °F - 30.2 °F 41% 30.07 in 10.0 mi North 5.8 mph - N/A   Mostly Cloudy
12:56 PM 53.6 °F - 30.2 °F 41% 30.07 in 10.0 mi East 5.8 mph - N/A   Overcast
1:16 PM 55.4 °F - 30.2 °F 38% 30.07 in 10.0 mi NNE 6.9 mph - N/A   Mostly Cloudy
1:36 PM 55.4 °F - 30.2 °F 38% 30.06 in 10.0 mi NE 4.6 mph - N/A   Mostly Cloudy
1:56 PM 55.4 °F - 30.2 °F 38% 30.06 in 10.0 mi North 5.8 mph - N/A   Overcast
2:16 PM 55.4 °F - 30.2 °F 38% 30.05 in 10.0 mi NNE 5.8 mph - N/A   Overcast
2:56 PM 55.4 °F - 30.2 °F 38% 30.03 in 10.0 mi Calm Calm - N/A   Mostly Cloudy
3:16 PM 57.2 °F - 30.2 °F 36% 30.03 in 10.0 mi NNW 4.6 mph - N/A   Scattered Clouds
3:36 PM 57.2 °F - 30.2 °F 36% 30.02 in 10.0 mi NE 6.9 mph - N/A   Clear
3:56 PM 57.2 °F - 28.4 °F 33% 30.01 in 10.0 mi North 3.5 mph - N/A   Partly Cloudy
4:16 PM 57.2 °F - 30.2 °F 36% 30.00 in 10.0 mi ENE 3.5 mph - N/A   Partly Cloudy
4:36 PM 57.2 °F - 30.2 °F 36% 30.00 in 10.0 mi North 5.8 mph - N/A   Partly Cloudy
4:56 PM 57.2 °F - 30.2 °F 36% 29.99 in 10.0 mi North 6.9 mph - N/A   Clear
5:16 PM 59.0 °F - 32.0 °F 36% 29.98 in 10.0 mi NNW 6.9 mph - N/A   Clear
5:36 PM 59.0 °F - 32.0 °F 36% 29.97 in 10.0 mi NNE 6.9 mph - N/A   Clear
5:56 PM 59.0 °F - 32.0 °F 36% 29.96 in 10.0 mi North 8.1 mph - N/A   Clear
6:16 PM 60.8 °F - 32.0 °F 34% 29.96 in 10.0 mi North 5.8 mph - N/A   Clear
6:36 PM 59.0 °F - 32.0 °F 36% 29.95 in 10.0 mi North 8.1 mph - N/A   Clear
6:56 PM 59.0 °F - 32.0 °F 36% 29.95 in 10.0 mi North 6.9 mph - N/A   Clear
7:16 PM 57.2 °F - 32.0 °F 38% 29.94 in 10.0 mi NNE 8.1 mph - N/A   Clear
7:36 PM 57.2 °F - 30.2 °F 36% 29.94 in 10.0 mi NNE 9.2 mph - N/A   Clear
7:56 PM 57.2 °F - 30.2 °F 36% 29.94 in 10.0 mi North 5.8 mph - N/A   Clear
8:16 PM 57.2 °F - 30.2 °F 36% 29.93 in 10.0 mi North 4.6 mph - N/A   Partly Cloudy
8:36 PM 55.4 °F - 30.2 °F 38% 29.94 in 10.0 mi ENE 6.9 mph - N/A   Mostly Cloudy
8:56 PM 55.4 °F - 30.2 °F 38% 29.94 in 10.0 mi NNE 5.8 mph - N/A   Scattered Clouds
9:16 PM 55.4 °F - 30.2 °F 38% 29.93 in 10.0 mi North 3.5 mph - N/A   Scattered Clouds
9:36 PM 53.6 °F - 30.2 °F 41% 29.93 in 10.0 mi NNE 6.9 mph - N/A   Mostly Cloudy
9:56 PM 55.4 °F - 28.4 °F 36% 29.93 in 10.0 mi East 6.9 mph - N/A   Mostly Cloudy
10:16 PM 53.6 °F - 30.2 °F 41% 29.93 in 10.0 mi East 8.1 mph - N/A   Mostly Cloudy
10:36 PM 51.8 °F - 30.2 °F 44% 29.93 in 10.0 mi ESE 9.2 mph - N/A   Overcast
10:56 PM 51.8 °F - 30.2 °F 44% 29.92 in 10.0 mi ESE 9.2 mph - N/A   Overcast
11:16 PM 51.8 °F - 32.0 °F 47% 29.92 in 10.0 mi East 8.1 mph - N/A   Overcast
11:36 PM 50.0 °F - 33.8 °F 54% 29.92 in 10.0 mi East 9.2 mph - N/A   Overcast
11:56 PM 48.2 °F - 33.8 °F 58% 29.92 in 10.0 mi East 8.1 mph - N/A   Overcast